This is the latest recevied weather packets stored in our database for station/object N8BAP. If no packets are shown the sender has not sent any weather packets the latest 10 day(s).
| Time | Temp. | Humidity | Pressure | Rain* | Wind** | Luminosity | Snow |
|---|---|---|---|---|---|---|---|
| 1778177671 | 14.44° C | 44% | 1019.3 hPa | 0 mm | - | 714 W/m² | - |
| 1778177368 | 14.44° C | 47% | 1019.3 hPa | 0 mm | - | 704 W/m² | - |
| 1778177064 | 13.89° C | 47% | 1019.4 hPa | 0 mm | - | 694 W/m² | - |
| 1778176760 | 13.89° C | 51% | 1019.3 hPa | 0 mm | - | 678 W/m² | - |
| 1778176457 | 13.89° C | 45% | 1019.2 hPa | 0 mm | - | 692 W/m² | - |
| 1778176155 | 13.89° C | 45% | 1019.5 hPa | 0 mm | - | 727 W/m² | - |
| 1778175852 | 13.89° C | 45% | 1019.5 hPa | 0 mm | - | 736 W/m² | - |
| 1778175550 | 13.89° C | 45% | 1019.3 hPa | 0 mm | - | 730 W/m² | - |
| 1778175246 | 13.89° C | 51% | 1019.5 hPa | 0 mm | - | 723 W/m² | - |
| 1778174943 | 13.89° C | 52% | 1019.4 hPa | 0 mm | - | 731 W/m² | - |
| 1778174640 | 13.33° C | 50% | 1019.6 hPa | 0 mm | - | 751 W/m² | - |
| 1778174335 | 13.33° C | 46% | 1020 hPa | 0 mm | - | 556 W/m² | - |
| 1778174032 | 13.33° C | 48% | 1019.9 hPa | 0 mm | - | 732 W/m² | - |
| 1778173730 | 13.33° C | 50% | 1019.7 hPa | 0 mm | - | 680 W/m² | - |
| 1778173426 | 13.33° C | 43% | 1019.7 hPa | 0 mm | - | 757 W/m² | - |
| 1778173122 | 13.33° C | 46% | 1019.9 hPa | 0 mm | - | 714 W/m² | - |
| 1778172818 | 12.78° C | 51% | 1019.9 hPa | 0 mm | - | 620 W/m² | - |
| 1778172514 | 13.33° C | 46% | 1019.9 hPa | 0 mm | - | 759 W/m² | - |
| 1778172211 | 12.78° C | 49% | 1019.9 hPa | 0 mm | - | 728 W/m² | - |
| 1778171908 | 13.33° C | 45% | 1019.9 hPa | 0 mm | - | 704 W/m² | - |
| 1778171606 | 13.33° C | 50% | 1020.1 hPa | 0 mm | - | 692 W/m² | - |
| 1778171302 | 12.78° C | 45% | 1020.3 hPa | 0 mm | - | 672 W/m² | - |
| 1778170998 | 12.78° C | 47% | 1020.1 hPa | 0 mm | - | 629 W/m² | - |
| 1778170695 | 12.78° C | 49% | 1020.1 hPa | 0 mm | - | 609 W/m² | - |
| 1778170392 | 12.78° C | 52% | 1020 hPa | 0 mm | - | 658 W/m² | - |
* Rain latest hour (hover to see other rain measurements)
** Current wind speed in m/s (hover to see current wind gust speed)